Location: Newark
(47.5833°N, 8.1500°E)
Time: 01:26:33
(UTC+00:00)

Altair - Visible Passes

Search period start: 27 October 2020 00:00
Search period end: 06 November 2020 00:00
Orbit: 1502 x 1682 km, 47.2° (Epoch: 26 October)

Date Brightness Start Highest point End Pass type
(mag) Time Alt. Az. Time Alt. Az. Time Alt. Az.
27 Oct 9.6 02:21:11 10° SE 02:24:20 12° ESE 02:27:31 10° ESE visible
27 Oct 8.5 04:18:24 10° SSW 04:26:54 43° SE 04:35:42 10° ENE visible
28 Oct 9.6 01:57:58 10° SE 01:59:23 10° ESE 02:00:47 10° ESE visible
28 Oct 8.5 03:53:29 10° SSW 04:01:50 40° SE 04:10:27 10° ENE visible
29 Oct 8.5 03:29:34 13° SSW 03:36:47 37° SE 03:45:11 10° ENE visible
29 Oct 7.8 05:31:18 10° WSW 05:40:35 76° SSE 05:50:16 10° ENE visible
30 Oct 8.6 03:06:27 20° S 03:11:43 35° SE 03:19:55 10° ENE visible
30 Oct 7.7 05:06:11 10° WSW 05:15:27 73° SSE 05:25:03 10° ENE visible
31 Oct 8.6 02:43:14 25° S 02:46:41 32° SE 02:54:37 10° ENE visible
31 Oct 7.7 04:41:19 11° WSW 04:50:17 71° SSE 04:59:50 10° ENE visible
01 Nov 8.6 02:19:56 28° SSE 02:21:38 30° SE 02:29:20 10° E visible
01 Nov 7.7 04:17:59 18° SW 04:25:09 68° SSE 04:34:37 10° ENE visible
02 Nov 8.7 01:56:32 27° SE 01:56:37 27° SE 02:04:00 10° E visible
02 Nov 7.7 03:54:35 28° SW 04:00:01 65° SSE 04:09:24 10° ENE visible
03 Nov 8.9 01:33:04 24° ESE 01:33:04 24° ESE 01:38:40 10° E visible
03 Nov 7.7 03:31:06 38° SW 03:34:53 62° SSE 03:44:11 10° ENE visible
03 Nov 7.6 05:30:03 10° W 05:39:24 88° S 05:49:08 10° E visible
04 Nov 9.1 01:09:33 19° ESE 01:09:33 19° ESE 01:13:17 10° E visible
04 Nov 7.7 03:07:35 49° SSW 03:09:46 59° SSE 03:18:59 10° ENE visible
04 Nov 7.5 05:05:37 13° W 05:14:12 88° S 05:23:54 10° E visible
05 Nov 9.4 00:45:58 15° E 00:45:58 15° E 00:47:52 10° E visible
05 Nov 7.6 02:44:00 55° SSE 02:44:40 56° SSE 02:53:46 10° ENE visible
05 Nov 7.5 04:42:01 20° W 04:49:02 87° S 04:58:41 10° E visible
